DW2458 Weather Reports


Display with metric or nautical units.
time (UTC)temp
F
wind
direction
speed
MPH
gust
MPH
rain 1hr
in
rain 24hr
in
rain mn
in
humidity
%
barometer
mb
20260901170030 69 217 4.0 6.0 0.00 0.00 0.00 52 1014.6
20260901164530 67 165 5.0 7.0 0.00 0.00 0.00 55 1014.5
20260901163026 65 185 1.0 3.0 0.00 0.00 0.00 58 1014.4
20260901161521 66 221 2.0 7.0 0.00 0.00 0.00 58 1014.7
20260901160017 66 228 0.0 5.0 0.00 0.00 0.00 58 1014.5
20260901154523 65 235 2.0 7.0 0.00 0.00 0.00 59 1014.2
20260901153010 64 231 0.0 5.0 0.00 0.00 0.00 61 1014.3
20260901151514 63 171 2.0 9.0 0.00 0.00 0.00 61 1014.0
20260901150012 63 211 2.0 6.0 0.00 0.00 0.00 63 1014.2
20260901144601 62 200 2.0 7.0 0.00 0.00 0.00 64 1013.8
20260901143120 62 203 3.0 6.0 0.00 0.00 0.00 65 1013.6
20260901141607 62 234 1.0 7.0 0.00 0.00 0.00 65 1013.5
20260901140050 62 192 2.0 5.0 0.00 0.00 0.00 65 1013.2
20260901134548 62 234 3.0 8.0 0.00 0.00 0.00 64 1013.1
20260901133102 62 207 2.0 7.0 0.00 0.00 0.00 66 1013.1
20260901131545 62 222 1.0 5.0 0.00 0.00 0.00 66 1013.1
20260901130050 61 215 3.0 7.0 0.00 0.00 0.00 66 1012.9
20260901124544 61 222 0.0 4.0 0.00 0.00 0.00 66 1012.8
20260901123043 61 223 1.0 3.0 0.00 0.00 0.00 66 1012.9
20260901121542 62 307 0.0 4.0 0.00 0.00 0.00 66 1012.8
20260901120048 62 295 0.0 3.0 0.00 0.00 0.00 67 1012.6
20260901114539 62 267 0.0 3.0 0.00 0.00 0.00 67 1012.8
20260901113050 62 281 2.0 5.0 0.00 0.00 0.00 66 1013.0
20260901111539 62 233 0.0 6.0 0.00 0.00 0.00 66 1012.9
20260901110036 62 293 0.0 5.0 0.00 0.00 0.00 67 1012.9
20260901104544 62 281 2.0 5.0 0.00 0.00 0.00 68 1012.9
20260901103033 62 263 0.0 4.0 0.00 0.00 0.00 68 1012.8
20260901101537 62 243 0.0 4.0 0.00 0.00 0.00 68 1012.6
20260901100032 62 237 1.0 6.0 0.00 0.00 0.00 68 1012.6
20260901094535 62 282 0.0 3.0 0.00 0.00 0.00 68 1012.5
20260901093034 62 281 0.0 1.0 0.00 0.00 0.00 69 1012.5
20260901091531 62 265 0.0 3.0 0.00 0.00 0.00 68 1012.4
20260901090031 62 306 2.0 4.0 0.00 0.00 0.00 68 1012.5
20260901084528 62 300 1.0 5.0 0.00 0.00 0.00 68 1012.4
20260901083028 62 290 3.0 6.0 0.00 0.00 0.00 68 1012.4
20260901081527 62 316 2.0 5.0 0.00 0.00 0.00 69 1012.6
20260901080031 62 320 0.0 5.0 0.00 0.00 0.00 69 1012.5
20260901074525 62 328 1.0 4.0 0.00 0.00 0.00 70 1012.4
20260901073024 62 324 2.0 5.0 0.00 0.00 0.00 69 1012.6
20260901071523 62 281 0.0 0.0 0.00 0.00 0.00 70 1012.6
20260901070021 62 281 0.0 0.0 0.00 0.00 0.00 69 1012.6
20260901064523 62 281 0.0 3.0 0.00 0.00 0.00 69 1012.6
20260901063021 62 27 0.0 3.0 0.00 0.00 0.00 70 1012.6
20260901061520 62 297 0.0 3.0 0.00 0.00 0.00 72 1012.8
20260901060022 62 302 2.0 7.0 0.00 0.00 0.00 70 1012.7
20260901054619 62 322 4.0 8.0 0.00 0.00 0.00 70 1012.7
20260901053016 62 327 1.0 8.0 0.00 0.00 0.00 71 1012.8
20260901051517 62 321 2.0 6.0 0.00 0.00 0.00 72 1012.7
20260901050016 61 320 2.0 6.0 0.00 0.00 0.00 72 1012.4
20260901044515 61 17 3.0 6.0 0.00 0.00 0.00 73 1012.4
20260901043020 61 321 4.0 9.0 0.00 0.00 0.00 72 1012.4
20260901041513 62 312 3.0 9.0 0.00 0.00 0.00 73 1012.2
20260901040013 62 319 3.0 9.0 0.00 0.00 0.00 74 1012.1
20260901034512 62 340 3.0 8.0 0.00 0.00 0.00 73 1011.9
20260901033011 63 328 3.0 9.0 0.00 0.00 0.00 71 1011.8
20260901031520 63 300 5.0 11.0 0.00 0.00 0.00 71 1011.4
20260901030110 63 338 2.0 13.0 0.00 0.00 0.00 70 1011.2
20260901024509 64 331 4.0 10.0 0.00 0.00 0.00 70 1011.3
20260901023021 64 323 5.0 11.0 0.00 0.00 0.00 69 1011.2
20260901021515 65 334 4.0 10.0 0.00 0.00 0.00 69 1011.2
20260901020020 65 336 8.0 12.0 0.00 0.00 0.00 67 1011.0
20260901014511 66 336 6.0 14.0 0.00 0.00 0.00 68 1010.9
20260901013018 67 321 5.0 12.0 0.00 0.00 0.00 66 1010.9
20260901011514 67 24 5.0 15.0 0.00 0.00 0.00 65 1011.0
20260901010007 68 9 9.0 15.0 0.00 0.00 0.00 64 1011.1
20260901004504 68 335 8.0 14.0 0.00 0.00 0.00 63 1011.1
20260901003003 69 327 6.0 14.0 0.00 0.00 0.00 61 1010.9
20260901001510 70 5 8.0 15.0 0.00 0.00 0.00 61 1010.9
20260901000002 71 340 8.0 19.0 0.00 0.00 0.00 61 1011.0
20260831234501 70 32 8.0 18.0 0.00 0.00 0.00 60 1011.1
20260831233100 72 355 6.0 15.0 0.00 0.00 0.00 59 1011.0
20260831231600 71 49 6.0 14.0 0.00 0.00 0.00 60 1011.0
20260831230105 73 63 4.0 15.0 0.00 0.00 0.00 58 1011.2
20260831224559 73 20 9.0 17.0 0.00 0.00 0.00 56 1011.3
20260831223057 74 5 7.0 16.0 0.00 0.00 0.00 56 1011.2
20260831221603 73 17 7.0 14.0 0.00 0.00 0.00 57 1011.3
20260831220056 74 330 9.0 16.0 0.00 0.00 0.00 55 1011.7
20260831214559 74 34 9.0 16.0 0.00 0.00 0.00 56 1011.9
20260831213056 74 19 7.0 14.0 0.00 0.00 0.00 56 1012.0
20260831211556 75 345 6.0 14.0 0.00 0.00 0.00 55 1012.1
20260831210056 74 22 5.0 12.0 0.00 0.00 0.00 55 1012.2
20260831204555 74 42 3.0 13.0 0.00 0.00 0.00 56 1012.2
20260831203101 75 335 5.0 11.0 0.00 0.00 0.00 53 1012.5
20260831201548 75 248 3.0 12.0 0.00 0.00 0.00 53 1012.3
20260831200046 75 344 4.0 10.0 0.00 0.00 0.00 53 1012.4
20260831194552 74 315 4.0 9.0 0.00 0.00 0.00 54 1012.5
20260831193046 74 204 3.0 7.0 0.00 0.00 0.00 54 1012.6
20260831191555 72 26 1.0 6.0 0.00 0.00 0.00 57 1012.8
20260831190040 70 313 2.0 9.0 0.00 0.00 0.00 60 1012.9
20260831184538 69 55 1.0 5.0 0.00 0.00 0.00 63 1013.0
20260831183037 69 129 2.0 7.0 0.00 0.00 0.00 62 1013.1
20260831181535 68 306 1.0 6.0 0.00 0.00 0.00 63 1013.2
20260831180034 67 44 4.0 7.0 0.00 0.00 0.00 65 1013.2
20260831174532 66 113 0.0 3.0 0.00 0.00 0.00 68 1013.1
20260831173029 66 282 0.0 5.0 0.00 0.00 0.00 67 1013.2
20260831171526 65 107 1.0 7.0 0.00 0.00 0.00 72 1013.2